Weather History for KPBF - June, 2014

Change the Weather History Date:

Tuesday, June 10, 2014

  Actual Average Record
Temperature  
Mean Temperature 74 °F 78 °F  
Max Temperature 80 °F 88 °F 101 °F (1914)
Min Temperature 68 °F 68 °F 52 °F (1955)
Degree Days  
Heating Degree Days 0 0  
Month to date heating degree days 0 0  
Since 1 June heating degree days 0 0  
Since 1 July heating degree days 3453 2881  
Cooling Degree Days 9 13  
Month to date cooling degree days 126 120  
Year to date cooling degree days 389 427  
Since 1 June cooling degree days 126 120  
Growing Degree Days 23 (Base 50)    
Moisture  
Dew Point 66 °F    
Average Humidity 74    
Maximum Humidity 93    
Minimum Humidity 54    
Precipitation  
Precipitation 0.03 in 0.13 in 1.20 in (1910)
Month to date precipitation 2.47 1.38  
Year to date precipitation 24.74 24.58  
Snow  
Snow 0.00 in 0.00 in - ()
Month to date snowfall 0.0 0.0  
Since 1 June snowfall 0.0 0.0  
Since 1 July snowfall 3.7 3.1  
Snow Depth 0.00 in    
Sea Level Pressure  
Sea Level Pressure 29.75 in    
Wind  
Wind Speed 9 mph (SSW)    
Max Wind Speed 20 mph    
Max Gust Speed 25 mph    
Visibility 10 miles    
Events Rain    
T = Trace of Precipitation, MM = Missing Value Source: NWS Daily Summary

Daily Weather History Graph

Daily Weather History Graph

Search for Another Location

Airport or City:

Trip Planner

Search our weather history database for the weather conditions in past years. The results will help you decide how hot, cold, wet, or windy it might be!

Date:

Astronomy

Jun. 10, 2014 Rise Set
Actual Time 5:55 AM CDT 8:19 PM CDT
Civil Twilight 5:26 AM CDT 8:48 PM CDT
Nautical Twilight 4:50 AM CDT 9:24 PM CDT
Astronomical Twilight 4:11 AM CDT 10:03 PM CDT
Moon 5:50 PM CDT (6/10) 3:54 AM CDT (6/10)
Length of Visible Light 15h 21m
Length of Day
14h 23m
Waxing Gibbous, 92% of the Moon is Illuminated
Jun 10
Waxing Gibbous
Jun 12
Full
Jun 19
Last Quarter
Jun 27
New
Jul 5
First Quarter

Hourly Weather History & Observations

Time (CDT) Temp. Dew Point Humidity Pressure Visibility Wind Dir Wind Speed Gust Speed Precip Events Conditions
12:07 AM 69.8 °F 66.2 °F 88% 29.79 in 8.0 mi South 6.9 mph - 0.02 in Rain Light Rain
12:19 AM 69.8 °F 66.2 °F 88% 29.79 in 10.0 mi South 8.1 mph - 0.02 in   Overcast
12:50 AM 69.8 °F 66.2 °F 88% 29.80 in 10.0 mi South 9.2 mph - 0.03 in Rain Light Rain
12:53 AM 69.1 °F 66.0 °F 90% 29.79 in 10.0 mi South 11.5 mph - 0.03 in Rain Light Rain
1:05 AM 69.8 °F 66.2 °F 88% 29.79 in 10.0 mi South 8.1 mph 18.4 mph N/A   Overcast
1:53 AM 69.1 °F 66.0 °F 90% 29.79 in 10.0 mi South 8.1 mph - 0.00 in   Overcast
2:25 AM 68.0 °F 66.2 °F 94% 29.78 in 10.0 mi South 5.8 mph - N/A   Mostly Cloudy
2:37 AM 68.0 °F 66.2 °F 94% 29.77 in 10.0 mi South 5.8 mph - 0.00 in Rain Light Rain
2:53 AM 69.1 °F 66.9 °F 93% 29.76 in 10.0 mi South 4.6 mph - 0.01 in Rain Light Rain
3:22 AM 68.0 °F 66.2 °F 94% 29.75 in 10.0 mi South 5.8 mph - 0.00 in Rain Light Rain
3:53 AM 68.0 °F 66.9 °F 96% 29.74 in 10.0 mi SSE 5.8 mph - 0.01 in Rain Light Rain
4:09 AM 68.0 °F 66.2 °F 94% 29.74 in 10.0 mi SSE 5.8 mph - 0.00 in   Overcast
4:40 AM 68.0 °F 66.2 °F 94% 29.73 in 10.0 mi Calm Calm - 0.00 in Rain Light Rain
4:53 AM 68.0 °F 66.0 °F 93% 29.73 in 10.0 mi SE 4.6 mph - 0.00 in   Overcast
5:33 AM 68.0 °F 66.2 °F 94% 29.72 in 10.0 mi SSE 3.5 mph - N/A   Overcast
5:53 AM 68.0 °F 66.9 °F 96% 29.71 in 10.0 mi Calm Calm - N/A   Overcast
6:08 AM 68.0 °F 66.2 °F 94% 29.72 in 10.0 mi SE 4.6 mph - N/A   Overcast
6:48 AM 68.0 °F 66.2 °F 94% 29.73 in 10.0 mi South 5.8 mph - N/A   Overcast
6:53 AM 69.1 °F 66.9 °F 93% 29.73 in 10.0 mi SSE 4.6 mph - N/A   Overcast
7:53 AM 69.1 °F 66.9 °F 93% 29.75 in 10.0 mi SSW 5.8 mph - N/A   Overcast
8:26 AM 69.8 °F 68.0 °F 94% 29.75 in 10.0 mi SSW 10.4 mph - N/A   Overcast
8:48 AM 71.6 °F 66.2 °F 83% 29.76 in 10.0 mi SW 11.5 mph - N/A   Mostly Cloudy
8:53 AM 71.1 °F 66.9 °F 87% 29.75 in 10.0 mi SSW 11.5 mph - N/A   Mostly Cloudy
9:08 AM 71.6 °F 66.2 °F 83% 29.75 in 10.0 mi South 10.4 mph - N/A   Mostly Cloudy
9:20 AM 71.6 °F 66.2 °F 83% 29.76 in 10.0 mi South 10.4 mph - N/A   Mostly Cloudy
9:43 AM 71.6 °F 66.2 °F 83% 29.76 in 10.0 mi SSW 12.7 mph - N/A   Overcast
9:53 AM 71.6 °F 66.2 °F 83% 29.76 in 10.0 mi SSW 11.5 mph - N/A   Overcast
10:00 AM 71.6 °F 66.2 °F 83% 29.76 in 10.0 mi SSW 11.5 mph - N/A   Overcast
10:53 AM 73.9 °F 66.9 °F 79% 29.74 in 10.0 mi SW 10.4 mph - N/A   Mostly Cloudy
11:41 AM 73.4 °F 66.2 °F 78% 29.75 in 10.0 mi SSW 10.4 mph - N/A   Overcast
11:53 AM 73.9 °F 66.0 °F 76% 29.75 in 10.0 mi SSW 11.5 mph - N/A   Overcast
12:53 PM 75.9 °F 68.0 °F 76% 29.75 in 10.0 mi SSW 13.8 mph - 0.00 in   Mostly Cloudy
1:01 PM 75.2 °F 66.2 °F 73% 29.75 in 10.0 mi SSW 13.8 mph - N/A   Mostly Cloudy
1:53 PM 77.0 °F 64.4 °F 65% 29.73 in 10.0 mi SSW 15.0 mph - N/A   Overcast
2:53 PM 75.9 °F 64.0 °F 67% 29.73 in 10.0 mi WSW 13.8 mph - N/A   Mostly Cloudy
3:53 PM 78.8 °F 62.6 °F 57% 29.72 in 10.0 mi SW 16.1 mph 20.7 mph N/A   Scattered Clouds
4:53 PM 78.1 °F 61.0 °F 56% 29.71 in 10.0 mi WSW 16.1 mph - N/A   Partly Cloudy
5:53 PM 77.0 °F 62.1 °F 60% 29.70 in 10.0 mi WSW 11.5 mph - N/A   Partly Cloudy
6:53 PM 75.9 °F 63.0 °F 64% 29.71 in 10.0 mi WSW 9.2 mph - N/A   Partly Cloudy
7:53 PM 73.9 °F 64.0 °F 71% 29.73 in 10.0 mi WSW 5.8 mph - N/A   Clear
8:53 PM 72.0 °F 64.9 °F 78% 29.74 in 10.0 mi WSW 9.2 mph - N/A   Mostly Cloudy
9:53 PM 69.8 °F 62.6 °F 78% 29.75 in 10.0 mi SW 8.1 mph - N/A   Overcast
10:53 PM 70.0 °F 63.0 °F 78% 29.75 in 10.0 mi SW 4.6 mph - N/A   Overcast
11:53 PM 69.1 °F 63.0 °F 81% 29.76 in 10.0 mi SW 6.9 mph - N/A   Overcast